Location: Unspecified
(0.0000°N, 0.0000°E)
Time: 16:48:20
(UTC+00:00)

Envisat - Pass Details

Date: 07 December 2018
Orbit: 764 x 766 km, 98.2° (Epoch: 13 December)

Event Time Altitude Azimuth Distance (km) Brightness Sun altitude
Rises 20:00:39 0° 190° (S) 3,231 6.7 -29.5°
Reaches altitude 10° 20:03:18 10° 203° (SSW) 2,302 6.0 -30.1°
Maximum altitude 20:07:26 26° 258° (WSW) 1,482 5.0 -31.0°
Drops below altitude 10° 20:11:35 10° 313° (NW) 2,294 5.6 -32.0°
Sets 20:14:14 0° 326° (NW) 3,216 6.3 -32.5°
